Stations météo

réclame
Mon MeteoGroup
Cabauw Tower, Pays-Bas (6348): Température de l'air & dewpoint: 10.07.2019 00:00:00 - 16.07.2019 00:00:00 (CEST)Cabauw Tower, Pays-Bas (6348): Température de l'air 5cm: 10.07.2019 00:00:00 - 16.07.2019 00:00:00 (CEST)Cabauw Tower, Pays-Bas (6348): Vitesse du vent & gusts: 10.07.2019 00:00:00 - 16.07.2019 00:00:00 (CEST)Cabauw Tower, Pays-Bas (6348): Direction du vent: 10.07.2019 00:00:00 - 16.07.2019 00:00:00 (CEST)Cabauw Tower, Pays-Bas (6348): reduced air pressure: 10.07.2019 00:00:00 - 16.07.2019 00:00:00 (CEST)Cabauw Tower, Pays-Bas (6348): visibility: 10.07.2019 00:00:00 - 16.07.2019 00:00:00 (CEST)Cabauw Tower, Pays-Bas (6348): Quantités de précipitations: 10.07.2019 00:00:00 - 16.07.2019 00:00:00 (CEST)
Date & Time tt [°C] td [°C] tt 5cm [°C] ff [km/h] ff [knt] fx [km/h] fx [knt] dd ppp [hPa] vv [km] rr [mm]
16.07.2019 00:00:00 14,7 12,3 14,4 11 6 14 8 NNW 1020,4 37 0,0
15.07.2019 23:00:00 14,9 12,1 14,4 7 4 14 8 NW 1020,5 45 0,0
15.07.2019 22:00:00 15,1 11,9 14,7 11 6 18 10 NW 1020,5 48 0,0
15.07.2019 21:00:00 15,4 12,0 14,7 14 8 22 12 NW 1020,3 48 0,0
15.07.2019 20:00:00 16,3 11,7 16,0 14 8 25 14 NW 1020,2 48 0,0
15.07.2019 19:00:00 16,9 12,0 17,0 18 10 25 14 NW 1020,4 44 0,0
15.07.2019 18:00:00 17,0 11,8 17,8 14 8 25 14 NNW 1020,6 41 0,0
15.07.2019 17:00:00 16,9 12,4 17,6 18 10 25 14 NW 1020,8 48 0,0
15.07.2019 16:00:00 16,4 11,9 16,9 14 8 22 12 NW 1021,0 42 0,0
15.07.2019 15:00:00 16,0 12,3 16,2 18 10 22 12 NNW 1021,0 26 0,0
15.07.2019 14:00:00 16,3 11,7 17,2 11 6 22 12 NNW 1021,0 31 0,0
15.07.2019 13:00:00 15,9 11,3 16,5 14 8 22 12 NNW 1021,1 33 0,0
15.07.2019 12:00:00 16,1 10,5 17,9 7 4 18 10 N 1020,9 35 0,0
15.07.2019 11:00:00 14,5 11,0 14,7 7 4 11 6 NW 1021,1 17 0,0
15.07.2019 10:00:00 14,5 10,7 14,6 7 4 18 10 NNW 1021,2 26 0,0
15.07.2019 09:00:00 14,4 11,0 14,5 7 4 18 10 N 1020,9 34 0,0
15.07.2019 08:00:00 14,0 11,0 14,0 14 8 22 12 N 1020,7 30 0,0
15.07.2019 07:00:00 13,9 11,2 13,7 7 4 14 8 NNE 1020,5 32 0,0
15.07.2019 06:00:00 13,8 11,4 13,5 7 4 11 6 N 1020,5 24 0,0
15.07.2019 05:00:00 14,0 11,3 13,7 11 6 14 8 N 1020,3 26 0,0
15.07.2019 04:00:00 14,2 11,8 13,8 7 4 14 8 NNW 1020,4 19 0,0
15.07.2019 03:00:00 14,1 11,8 13,7 7 4 11 6 NW 1020,9 28 0,0
15.07.2019 02:00:00 14,4 11,7 13,9 7 4 14 8 NW 1021,1 27 0,0
15.07.2019 01:00:00 14,4 11,3 13,9 7 4 14 8 NNW 1021,2 43 0,0
15.07.2019 00:00:00 14,5 11,0 13,9 11 6 14 8 N 1021,1 44 0,0
14.07.2019 23:00:00 14,5 10,7 13,2 11 6 14 8 N 1021,2 44 0,0
14.07.2019 22:00:00 13,6 10,6 12,6 11 6 25 14 NNW 1021,3 34 0,0
14.07.2019 21:00:00 15,3 10,8 14,7 18 10 29 16 NNW 1021,1 39 0,0
14.07.2019 20:00:00 16,9 10,9 17,0 22 12 29 16 NNW 1020,8 45 0,0
14.07.2019 19:00:00 17,7 10,9 18,4 22 12 32 18 NNW 1020,7 42 0,0
14.07.2019 18:00:00 17,7 11,3 17,6 18 10 29 16 NNW 1020,6 42 0,0
14.07.2019 17:00:00 17,7 12,4 18,6 14 8 25 14 N 1020,8 38 0,0
14.07.2019 16:00:00 17,3 12,9 17,9 18 10 29 16 N 1021,0 41 0,0
14.07.2019 15:00:00 17,6 12,5 18,2 14 8 25 14 N 1021,0 37 0,0
14.07.2019 14:00:00 17,2 12,8 18,5 14 8 22 12 NNW 1021,0 37 0,0
14.07.2019 13:00:00 16,4 12,9 17,0 18 10 32 18 N 1021,1 42 0,0
14.07.2019 12:00:00 17,3 12,4 18,3 18 10 29 16 N 1021,1 36 0,0
14.07.2019 11:00:00 16,1 12,7 16,6 22 12 32 18 NNW 1021,0 44 0,0
14.07.2019 10:00:00 15,8 12,2 16,3 14 8 22 12 NNW 1020,8 48 0,0
14.07.2019 09:00:00 15,5 11,9 16,3 14 8 22 12 N 1020,6 33 0,0
14.07.2019 08:00:00 14,8 12,3 14,9 11 6 22 12 N 1020,3 31 0,0
14.07.2019 07:00:00 13,5 12,5 13,2 7 4 22 12 NNW 1020,4 18 0,0
14.07.2019 06:00:00 14,3 11,4 13,9 11 6 18 10 NW 1020,5 25 0,0
14.07.2019 05:00:00 14,4 11,3 13,9 7 4 14 8 NW 1020,4 24 0,0
14.07.2019 04:00:00 14,6 10,4 14,1 7 4 14 8 N 1020,6 29 0,0
14.07.2019 03:00:00 14,7 10,5 14,2 11 6 22 12 N 1020,8 32 0,0
14.07.2019 02:00:00 14,8 10,9 14,4 11 6 22 12 N 1020,9 28 0,0
14.07.2019 01:00:00 15,1 11,3 14,7 11 6 22 12 N 1021,0 27 0,0
14.07.2019 00:00:00 15,2 11,7 14,8 11 6 25 14 NNW 1021,1 33 0,0
13.07.2019 23:00:00 15,5 11,2 15,2 18 10 25 14 N 1021,1 41 0,0
13.07.2019 22:00:00 15,5 13,0 15,2 18 10 32 18 NNW 1020,8 22 0,0
13.07.2019 21:00:00 16,0 13,3 15,8 18 10 29 16 NW 1020,4 25 0,0
13.07.2019 20:00:00 17,2 12,5 17,1 18 10 25 14 NNW 1020,1 38 0,0
13.07.2019 19:00:00 17,7 12,9 17,4 22 12 32 18 NNW 1019,8 34 0,0
13.07.2019 18:00:00 18,1 13,6 18,2 22 12 32 18 NNW 1019,7 29 0,0
13.07.2019 17:00:00 19,2 14,8 20,3 22 12 36 19 N 1019,8 37 0,0
13.07.2019 16:00:00 19,0 15,1 19,3 18 10 29 16 N 1019,3 43 0,0
13.07.2019 15:00:00 20,4 14,8 21,8 22 12 32 18 NW 1018,9 37 0,0
13.07.2019 14:00:00 20,1 15,6 20,7 18 10 29 16 NW 1018,9 40 0,0
13.07.2019 13:00:00 19,3 15,1 20,9 22 12 29 16 WNW 1018,8 34 0,0
13.07.2019 12:00:00 19,2 15,3 20,3 14 8 22 12 NW 1018,6 36 0,0
13.07.2019 11:00:00 18,4 14,7 19,6 14 8 25 14 NNW 1018,5 36 0,0
13.07.2019 10:00:00 18,0 14,9 18,5 11 6 22 12 NNW 1018,4 23 0,0
13.07.2019 09:00:00 17,0 15,2 17,3 14 8 22 12 N 1018,0 14 0,9
13.07.2019 08:00:00 16,2 15,6 16,2 7 4 14 8 W 1017,3 5 0,0
13.07.2019 07:00:00 16,0 15,1 15,8 11 6 14 8 W 1017,0 7 0,0
13.07.2019 06:00:00 15,5 14,6 15,0 7 4 11 6 W 1016,7 10 0,0
13.07.2019 05:00:00 15,7 14,4 15,3 7 4 11 6 W 1016,2 12 0,0
13.07.2019 04:00:00 15,7 14,7 15,5 11 6 18 10 W 1016,2 10 0,0
13.07.2019 03:00:00 16,0 14,1 15,7 11 6 25 14 NW 1016,2 14 0,0
13.07.2019 02:00:00 16,0 14,3 15,4 14 8 22 12 NW 1015,8 15 0,0
13.07.2019 01:00:00 16,3 14,7 15,9 14 8 22 12 WNW 1015,9 11 0,0
13.07.2019 00:00:00 16,1 14,5 15,8 7 4 18 10 WNW 1015,7 17 0,0
12.07.2019 23:00:00 16,4 14,0 15,9 11 6 18 10 WNW 1015,2 25 0,0
12.07.2019 22:00:00 16,7 13,8 16,3 14 8 25 14 WNW 1014,7 25 0,0
12.07.2019 21:00:00 17,0 13,8 16,7 14 8 25 14 NW 1014,2 27 0,0
12.07.2019 20:00:00 17,3 14,1 17,2 18 10 29 16 WNW 1013,7 21 0,0
12.07.2019 19:00:00 17,8 14,4 18,0 18 10 32 18 NW 1013,2 21 0,0
12.07.2019 18:00:00 18,2 14,2 18,5 22 12 29 16 NW 1012,9 20 0,0
12.07.2019 17:00:00 18,5 14,5 18,8 22 12 32 18 NW 1012,8 28 0,0
12.07.2019 16:00:00 17,5 14,8 17,8 22 12 32 18 NW 1012,7 18 0,0
12.07.2019 15:00:00 17,4 15,5 18,1 14 8 22 12 WNW 1012,4 22 0,8
12.07.2019 14:00:00 16,2 15,4 16,0 11 6 29 16 NW 1012,2 16 3,1
12.07.2019 13:00:00 16,6 15,8 16,4 14 8 32 18 NW 1011,9 7 7,6
12.07.2019 12:00:00 17,4 16,9 17,4 11 6 22 12 WSW 1011,1 2,6 5,6
12.07.2019 11:00:00 18,5 16,7 19,3 14 8 25 14 SW 1011,2 10 0,1
12.07.2019 10:00:00 18,4 16,6 19,5 18 10 22 12 SW 1011,1 8 0,6
12.07.2019 09:00:00 17,1 16,1 17,1 11 6 18 10 WSW 1010,8 3,7 1,5
12.07.2019 08:00:00 16,8 15,8 16,7 7 4 22 12 SW 1010,7 4,2 1,1
12.07.2019 07:00:00 16,1 15,1 15,6 7 4 22 12 SW 1011,1 4,8 1,3
12.07.2019 06:00:00 16,0 14,8 15,2 7 4 18 10 WSW 1011,2 6 0,0
12.07.2019 05:00:00 16,6 15,2 15,6 11 6 14 8 S 1010,7 6 0,0
12.07.2019 04:00:00 15,9 15,0 14,8 11 6 14 8 SSW 1011,1 6 0,0
12.07.2019 03:00:00 15,2 14,7 14,0 7 4 11 6 S 1011,4 3,4 0,0
12.07.2019 02:00:00 15,4 15,0 13,1 4 2 7 4 S 1011,7 4,7 0,0
12.07.2019 01:00:00 15,6 15,4 13,1 4 2 7 4 SE 1011,9 7 0,0
12.07.2019 00:00:00 15,8 14,9 13,6 4 2 7 4 E 1012,2 8 0,0
11.07.2019 23:00:00 16,3 14,8 13,6 4 2 11 6 NNW 1012,4 14 0,0
11.07.2019 22:00:00 18,2 14,6 16,3 7 4 14 8 NW 1012,5 27 0,0
11.07.2019 21:00:00 20,1 14,5 19,3 11 6 18 10 NW 1012,0 38 0,0
11.07.2019 20:00:00 21,5 14,1 21,7 11 6 25 14 NW 1012,0 43 0,0
11.07.2019 19:00:00 22,3 14,2 23,1 18 10 29 16 NW 1011,6 41 0,0
11.07.2019 18:00:00 22,5 15,3 22,8 14 8 25 14 WNW 1011,7 20 0,0
11.07.2019 17:00:00 23,2 14,7 23,9 14 8 25 14 WNW 1011,6 23 0,0
11.07.2019 16:00:00 23,3 12,8 25,3 14 8 29 16 W 1011,7 23 0,0
11.07.2019 15:00:00 23,6 13,7 26,2 18 10 32 18 WSW 1011,8 28 0,0
11.07.2019 14:00:00 22,8 14,0 23,2 22 12 29 16 WSW 1011,7 35 0,0
11.07.2019 13:00:00 22,1 14,5 23,2 14 8 25 14 WSW 1011,9 24 0,0
11.07.2019 12:00:00 21,8 15,0 23,8 14 8 18 10 SW 1012,1 20 0,0
11.07.2019 11:00:00 20,5 15,0 21,3 7 4 14 8 SW 1012,3 18 0,0
11.07.2019 10:00:00 19,7 15,7 20,2 11 6 14 8 SW 1012,6 13 0,0
11.07.2019 09:00:00 18,6 15,6 18,7 11 6 14 8 S 1012,6 11 0,0
11.07.2019 08:00:00 17,3 15,1 17,3 11 6 14 8 SSE 1012,6 9 0,0
11.07.2019 07:00:00 16,0 14,4 15,6 7 4 14 8 SSE 1012,9 8 0,0
11.07.2019 06:00:00 15,5 14,4 15,0 11 6 14 8 SSE 1013,4 6 0,0
11.07.2019 05:00:00 15,9 14,5 15,4 7 4 14 8 SSE 1013,7 7 0,0
11.07.2019 04:00:00 15,9 14,7 15,5 11 6 14 8 SSE 1014,2 6 0,0
11.07.2019 03:00:00 15,8 14,8 15,4 7 4 14 8 SSE 1014,8 5 0,0
11.07.2019 02:00:00 15,6 14,8 15,3 11 6 14 8 SE 1015,2 4,5 0,0
11.07.2019 01:00:00 15,6 14,8 15,3 7 4 11 6 SE 1016,0 4,0 0,0
11.07.2019 00:00:00 15,5 14,9 15,2 7 4 14 8 SSE 1016,4 3,2 0,0
10.07.2019 23:00:00 15,3 14,7 15,0 11 6 14 8 SE 1016,6 3,6 0,0
10.07.2019 22:00:00 15,2 14,8 15,0 11 6 14 8 SSE 1017,1 3,4 1,9
10.07.2019 21:00:00 15,3 14,7 15,2 7 4 14 8 SSE 1017,3 4,1 0,4
10.07.2019 20:00:00 15,5 14,5 15,7 11 6 14 8 SSE 1017,8 6 0,4
10.07.2019 19:00:00 15,1 14,4 15,2 11 6 14 8 SSE 1018,2 4,7 0,7
10.07.2019 18:00:00 14,9 14,2 15,1 7 4 11 6 SSE 1018,7 4,7 1,3
10.07.2019 17:00:00 14,8 13,7 15,2 7 4 14 8 WSW 1019,5 3,8 0,8
10.07.2019 16:00:00 16,4 12,8 17,1 11 6 18 10 WSW 1019,6 7 0,2
10.07.2019 15:00:00 16,7 11,8 17,1 14 8 18 10 WSW 1019,9 16 0,6
10.07.2019 14:00:00 17,6 10,1 17,9 7 4 14 8 S 1020,2 42 0,3
10.07.2019 13:00:00 17,5 7,6 17,3 14 8 18 10 SW 1020,4 42 0,0
10.07.2019 12:00:00 18,1 7,2 18,7 14 8 22 12 S 1020,4 42 0,0
10.07.2019 11:00:00 18,5 8,1 20,0 14 8 22 12 SSW 1020,4 34 -
10.07.2019 10:00:00 16,7 9,0 17,4 14 8 18 10 S 1020,6 34 0,0
10.07.2019 09:00:00 15,2 10,5 16,1 11 6 14 8 S 1021,1 29 0,0
10.07.2019 08:00:00 13,8 9,9 13,7 11 6 14 8 SSE 1021,2 31 0,0
10.07.2019 07:00:00 13,0 10,2 12,5 7 4 11 6 SSE 1021,0 27 0,0
10.07.2019 06:00:00 12,5 10,1 11,9 4 2 14 8 SSE 1021,0 27 0,0
10.07.2019 05:00:00 12,9 9,9 11,7 11 6 18 10 ESE 1021,0 36 0,0
10.07.2019 04:00:00 12,6 10,0 10,6 7 4 11 6 E 1021,4 32 0,0
10.07.2019 03:00:00 13,1 10,1 10,6 7 4 7 4 E 1021,6 38 0,0
10.07.2019 02:00:00 12,4 9,7 8,6 7 4 7 4 E 1021,7 42 0,0
10.07.2019 01:00:00 11,3 9,2 6,7 4 2 7 4 NE 1021,9 46 0,0
10.07.2019 00:00:00 12,1 8,0 6,9 4 2 11 6 NE 1021,9 47 0,0

tt = Température de l'air
td = dewpoint
tt 5cm = Température de l'air 5cm
ff = Vitesse du vent
fx = gusts
dd = Direction du vent
ppp = reduced air pressure
vv = visibility
rr = Quantités de précipitations

stations d'obs. à proximité